TimeCDT,TemperatureF,Dew PointF,Humidity,Sea Level PressureIn,VisibilityMPH,Wind Direction,Wind SpeedMPH,Gust SpeedMPH,PrecipitationIn,Events,Conditions,WindDirDegrees,DateUTC
12:52 AM,53.1,48.0,83,30.04,10.0,ESE,10.4,-,N/A,,Clear,120,2013-09-23 05:52:00
1:52 AM,52.0,46.9,83,30.02,10.0,ESE,8.1,-,N/A,,Clear,120,2013-09-23 06:52:00
2:52 AM,51.1,46.9,86,30.03,10.0,ESE,9.2,-,N/A,,Clear,120,2013-09-23 07:52:00
3:52 AM,50.0,46.0,86,30.03,10.0,ESE,8.1,-,N/A,,Clear,120,2013-09-23 08:52:00
4:52 AM,48.9,45.0,86,30.04,10.0,ESE,8.1,-,N/A,,Clear,120,2013-09-23 09:52:00
5:52 AM,48.9,45.0,86,30.04,10.0,ESE,9.2,-,N/A,,Clear,120,2013-09-23 10:52:00
6:52 AM,48.0,44.1,86,30.06,10.0,ESE,8.1,-,N/A,,Clear,120,2013-09-23 11:52:00
7:52 AM,50.0,45.0,83,30.06,10.0,ESE,9.2,-,N/A,,Clear,120,2013-09-23 12:52:00
8:52 AM,55.0,46.0,72,30.07,10.0,SE,8.1,-,N/A,,Clear,130,2013-09-23 13:52:00
9:52 AM,59.0,46.9,64,30.09,10.0,ESE,9.2,-,N/A,,Clear,120,2013-09-23 14:52:00
10:52 AM,63.0,48.9,60,30.09,10.0,ESE,8.1,-,N/A,,Clear,120,2013-09-23 15:52:00
11:52 AM,68.0,51.1,55,30.07,10.0,ESE,10.4,-,N/A,,Clear,120,2013-09-23 16:52:00
12:52 PM,71.1,50.0,47,30.04,10.0,Variable,5.8,-,N/A,,Clear,0,2013-09-23 17:52:00
1:52 PM,73.0,48.9,42,30.02,10.0,SSE,9.2,16.1,N/A,,Clear,160,2013-09-23 18:52:00
2:52 PM,73.9,48.0,40,30.00,10.0,ESE,12.7,17.3,N/A,,Clear,120,2013-09-23 19:52:00
3:52 PM,73.9,46.9,38,29.99,10.0,SE,11.5,18.4,N/A,,Clear,130,2013-09-23 20:52:00
4:52 PM,73.9,48.0,40,29.98,10.0,ESE,9.2,-,N/A,,Clear,120,2013-09-23 21:52:00
5:52 PM,72.0,46.9,41,29.97,10.0,ESE,8.1,-,N/A,,Clear,120,2013-09-23 22:52:00
6:52 PM,64.9,48.0,54,29.98,10.0,ESE,6.9,-,N/A,,Clear,110,2013-09-23 23:52:00
7:52 PM,60.1,48.0,64,29.97,10.0,East,6.9,-,N/A,,Clear,100,2013-09-24 00:52:00
8:52 PM,59.0,48.0,67,29.99,10.0,East,9.2,-,N/A,,Clear,100,2013-09-24 01:52:00
9:52 PM,59.0,48.0,67,29.99,10.0,East,10.4,-,N/A,,Clear,100,2013-09-24 02:52:00
10:52 PM,57.0,46.9,69,29.99,10.0,East,9.2,-,N/A,,Clear,100,2013-09-24 03:52:00
11:52 PM,53.1,46.9,80,29.99,10.0,East,6.9,-,N/A,,Clear,90,2013-09-24 04:52:00